Location: City of Moscow
(46.7306°N, 116.9989°W)
Time: 06:49:47
(UTC+00:00)

USA 234 - Pass Details

Date: 11 March 2026
Orbit: 1102 x 1106 km, 123.0° (Epoch: 4 January)

Event Time Altitude Azimuth Distance (km) Brightness Sun altitude
Exits shadow 03:10:12 18° 77° (ENE) 2,443 4.5 -15.0°
Maximum altitude 03:14:45 43° 15° (NNE) 1,520 4.0 -15.8°
Drops below altitude 10° 03:20:50 10° 307° (NW) 2,971 6.6 -16.8°
Sets 03:23:26 0° 301° (WNW) 3,930 7.6 -17.2°
